This demonstration page uses our WeatherBlox Daily Observations layout. Learn more.

Left ArrowRight Arrow

34.74481, -87.66753

Hourly Observations for March 26, 2022

Temp ( °F °C ) Dew Point ( °F °C ) Humidity (%) Winds ( mph kmh ) Pressure ( in mb ) Visibility ( mi km ) Precip ( " mm )
12:53 am 00:53 Clear 50 10 41 5 71 71 WNW 13 20 30.00 1016 10 16 0.00 0.00
1:53 am 01:53 Clear 49 9.4 40 4.4 71 71 WNW 10 17 30.01 1016 10 16 0.00 0.00
2:53 am 02:53 Clear 48 8.9 37 2.8 66 66 WNW 9 15 30.02 1017 10 16 0.00 0.00
3:53 am 03:53 Clear 45 7.2 36 2.2 71 71 WNW 8 13 30.01 1016 10 16 0.00 0.00
4:53 am 04:53 Clear 44 6.7 32 0 63 63 WNW 8 13 30.01 1016 10 16 0.00 0.00
5:53 am 05:53 Clear 41 5 31 -0.6 67 67 WNW 7 11 30.01 1016 10 16 0.00 0.00
6:53 am 06:53 Sunny 40 4.4 30 -1.1 68 68 W 5 7 30.03 1017 10 16 0.00 0.00
7:53 am 07:53 Sunny 46 7.8 33 0.6 61 61 W 6 9 30.04 1017 10 16 0.00 0.00
8:53 am 08:53 Sunny 50 10 31 -0.6 48 48 WNW 15 24 30.04 1017 10 16 0.00 0.00
9:53 am 09:53 Sunny 54 12.2 32 0 43 43 W 14 22 30.06 1018 10 16 0.00 0.00
10:53 am 10:53 Sunny 57 13.9 30 -1.1 36 36 WNW 16 26 30.05 1018 10 16 0.00 0.00
11:53 am 11:53 Sunny 59 15 25 -3.9 27 27 WNW 18 30 30.05 1018 10 16 0.00 0.00
12:53 pm 12:53 Sunny 62 16.7 22 -5.6 21 21 WNW 20 31 30.03 1017 10 16 0.00 0.00
1:53 pm 13:53 Sunny 63 17.2 21 -6.1 20 20 NW 23 37 30.00 1016 10 16 0.00 0.00
2:53 pm 14:53 Sunny 65 18.3 22 -5.6 19 19 WNW 22 35 29.97 1015 10 16 0.00 0.00
3:53 pm 15:53 Sunny 65 18.3 22 -5.6 19 19 WNW 22 35 29.96 1014 10 16 0.00 0.00
4:53 pm 16:53 Sunny 64 17.8 19 -7.2 18 18 NW 21 33 29.96 1014 10 16 0.00 0.00
5:53 pm 17:53 Sunny 62 16.7 22 -5.6 21 21 NNW 15 24 29.97 1015 10 16 0.00 0.00
6:53 pm 18:53 Sunny 59 15 25 -3.9 27 27 NW 7 11 29.98 1015 10 16 0.00 0.00
7:53 pm 19:53 Clear 56 13.3 26 -3.3 32 32 NNW 3 6 29.99 1016 10 16 0.00 0.00
8:53 pm 20:53 Clear 54 12.2 29 -1.7 38 38 NW 6 9 30.02 1017 10 16 0.00 0.00
9:53 pm 21:53 Clear 51 10.6 31 -0.6 46 46 W 7 11 30.03 1017 10 16 0.00 0.00
10:53 pm 22:53 Clear 49 9.4 31 -0.6 50 50 W 7 11 30.04 1017 10 16 0.00 0.00
11:53 pm 23:53 Clear 49 9.4 30 -1.1 48 48 Calm 30.03 1017 10 16 0.00 0.00

Powered by AerisWeather